Weather History for Farmington, MO

Change the Weather History Date:

Wednesday, June 18, 2014

  Actual Average Record
Temperature  
Mean Temperature 80 °F -  
Max Temperature 89 °F 80 °F 91 °F (2001)
Min Temperature 71 °F 60 °F 46 °F (1999)
Cooling Degree Days 15    
Growing Degree Days 30 (Base 50)    
Moisture  
Dew Point 70 °F    
Average Humidity 71    
Maximum Humidity 94    
Minimum Humidity 52    
Precipitation  
Precipitation 0.00 in - - ()
Sea Level Pressure  
Sea Level Pressure 30.04 in    
Wind  
Wind Speed 10 mph (SSW)    
Max Wind Speed 20 mph    
Max Gust Speed 25 mph    
Visibility 10 miles    
Events      
Averages and records for this station are not official NWS values.
T = Trace of Precipitation, MM = Missing Value Source: NWS Daily Summary

Daily Weather History Graph

Daily Weather History Graph

Search for Another Location

Airport:

Trip Planner

Search our weather history database for the weather conditions in past years. The results will help you decide how hot, cold, wet, or windy it might be!

Date:

Astronomy

Jun. 18, 2014 Rise Set
Actual Time 5:39 AM CDT 8:26 PM CDT
Civil Twilight 5:08 AM CDT 8:57 PM CDT
Nautical Twilight 4:29 AM CDT 9:36 PM CDT
Astronomical Twilight 3:44 AM CDT 10:21 PM CDT
Moon 12:00 AM CDT 11:56 AM CDT
Length of Visible Light 15h 49m
Length of Day
14h 46m
Waning Gibbous, 62% of the Moon is Illuminated
Jun 18
Waning Gibbous
Jun 19
Last Quarter
Jun 27
New
Jul 5
First Quarter
Jul 12
Full

Hourly Weather History & Observations

Time (CDT) Temp. Heat Index Dew Point Humidity Pressure Visibility Wind Dir Wind Speed Gust Speed Precip Events Conditions
12:15 AM 77.0 °F - 68.0 °F 74% 30.02 in 10.0 mi SSW 10.4 mph - N/A   Clear
12:35 AM 77.0 °F - 68.0 °F 74% 30.02 in 10.0 mi SSW 8.1 mph - N/A   Clear
12:55 AM 75.2 °F - 68.0 °F 78% 30.02 in 10.0 mi SSW 9.2 mph - N/A   Clear
1:15 AM 75.2 °F - 68.0 °F 78% 30.02 in 10.0 mi SSW 8.1 mph - N/A   Clear
1:35 AM 75.2 °F - 68.0 °F 78% 30.02 in 10.0 mi SSW 10.4 mph - N/A   Clear
1:55 AM 75.2 °F - 68.0 °F 78% 30.02 in 10.0 mi SSW 9.2 mph - N/A   Clear
2:15 AM 75.2 °F - 68.0 °F 78% 30.02 in 10.0 mi SSW 10.4 mph - N/A   Clear
2:35 AM 75.2 °F - 68.0 °F 78% 30.03 in 10.0 mi SSW 8.1 mph - N/A   Clear
2:55 AM 75.2 °F - 68.0 °F 78% 30.02 in 10.0 mi SSW 8.1 mph - N/A   Clear
3:15 AM 75.2 °F - 68.0 °F 78% 30.03 in 10.0 mi SSW 9.2 mph - N/A   Clear
3:35 AM 73.4 °F - 68.0 °F 83% 30.04 in 10.0 mi South 9.2 mph - N/A   Clear
3:55 AM 73.4 °F - 68.0 °F 83% 30.04 in 10.0 mi SSW 8.1 mph - N/A   Clear
4:15 AM 73.4 °F - 69.8 °F 88% 30.04 in 10.0 mi SSW 6.9 mph - N/A   Clear
4:35 AM 73.4 °F - 68.0 °F 83% 30.04 in 10.0 mi South 8.1 mph - N/A   Clear
4:55 AM 73.4 °F - 69.8 °F 88% 30.05 in 10.0 mi South 6.9 mph - N/A   Clear
5:15 AM 73.4 °F - 69.8 °F 88% 30.04 in 10.0 mi SSW 8.1 mph - N/A   Clear
5:35 AM 73.4 °F - 69.8 °F 88% 30.04 in 10.0 mi SSW 6.9 mph - N/A   Clear
5:55 AM 71.6 °F - 69.8 °F 94% 30.04 in 10.0 mi SSW 6.9 mph - N/A   Clear
6:15 AM 71.6 °F - 69.8 °F 94% 30.04 in 10.0 mi South 5.8 mph - N/A   Clear
6:35 AM 73.4 °F - 69.8 °F 88% 30.04 in 10.0 mi SSW 6.9 mph - N/A   Clear
6:55 AM 73.4 °F - 69.8 °F 88% 30.04 in 10.0 mi SSW 9.2 mph - N/A   Clear
7:15 AM 75.2 °F - 69.8 °F 83% 30.04 in 10.0 mi SSW 11.5 mph - N/A   Clear
7:35 AM 75.2 °F - 69.8 °F 83% 30.05 in 10.0 mi SSW 11.5 mph - N/A   Clear
7:55 AM 77.0 °F - 69.8 °F 78% 30.05 in 10.0 mi SSW 11.5 mph - N/A   Clear
8:15 AM 78.8 °F - 71.6 °F 78% 30.06 in 5.0 mi SSW 10.4 mph - N/A   Clear
8:55 AM 78.8 °F - 71.6 °F 78% 30.07 in 10.0 mi SSW 10.4 mph - N/A   Clear
9:15 AM 80.6 °F 84.6 °F 71.6 °F 74% 30.07 in 10.0 mi SSW 13.8 mph - N/A   Clear
9:35 AM 82.4 °F 87.2 °F 71.6 °F 70% 30.07 in 10.0 mi SSW 10.4 mph - N/A   Clear
9:55 AM 82.4 °F 87.2 °F 71.6 °F 70% 30.06 in 10.0 mi SSW 11.5 mph 17.3 mph N/A   Clear
10:15 AM 82.4 °F 87.2 °F 71.6 °F 70% 30.07 in 10.0 mi SW 11.5 mph - N/A   Clear
10:35 AM 84.2 °F 89.6 °F 71.6 °F 66% 30.07 in 10.0 mi SSW 12.7 mph - N/A   Clear
10:55 AM 84.2 °F 89.6 °F 71.6 °F 66% 30.07 in 10.0 mi SSW 12.7 mph - N/A   Clear
11:15 AM 84.2 °F 89.6 °F 71.6 °F 66% 30.07 in 10.0 mi South 10.4 mph 17.3 mph N/A   Clear
11:35 AM 84.2 °F 89.6 °F 71.6 °F 66% 30.07 in 10.0 mi SSW 12.7 mph - N/A   Clear
11:55 AM 86.0 °F 91.8 °F 71.6 °F 62% 30.07 in 10.0 mi South 15.0 mph 19.6 mph N/A   Scattered Clouds
12:15 PM 87.8 °F 93.8 °F 71.6 °F 58% 30.07 in 10.0 mi SSW 8.1 mph - N/A   Scattered Clouds
12:35 PM 87.8 °F 93.8 °F 71.6 °F 58% 30.06 in 10.0 mi South 12.7 mph 17.3 mph N/A   Clear
12:55 PM 87.8 °F 93.8 °F 71.6 °F 58% 30.05 in 10.0 mi South 15.0 mph 21.9 mph N/A   Clear
1:15 PM 87.8 °F 93.8 °F 71.6 °F 58% 30.05 in 10.0 mi South 10.4 mph 19.6 mph N/A   Scattered Clouds
1:35 PM 89.6 °F 94.7 °F 69.8 °F 52% 30.04 in 10.0 mi South 18.4 mph 21.9 mph N/A   Scattered Clouds
1:55 PM 89.6 °F 96.2 °F 71.6 °F 55% 30.04 in 10.0 mi South 15.0 mph 19.6 mph N/A   Scattered Clouds
2:15 PM 89.6 °F 94.7 °F 69.8 °F 52% 30.03 in 10.0 mi South 17.3 mph 24.2 mph N/A   Scattered Clouds
2:35 PM 89.6 °F 94.7 °F 69.8 °F 52% 30.03 in 10.0 mi SSW 19.6 mph 25.3 mph N/A   Partly Cloudy
2:55 PM 89.6 °F 96.2 °F 71.6 °F 55% 30.03 in 10.0 mi South 16.1 mph 20.7 mph N/A   Partly Cloudy
3:15 PM 89.6 °F 96.2 °F 71.6 °F 55% 30.03 in 10.0 mi South 17.3 mph 20.7 mph N/A   Partly Cloudy
3:35 PM 87.8 °F 92.6 °F 69.8 °F 55% 30.03 in 10.0 mi South 11.5 mph - N/A   Scattered Clouds
3:55 PM 89.6 °F 96.2 °F 71.6 °F 55% 30.02 in 10.0 mi South 15.0 mph 18.4 mph N/A   Partly Cloudy
4:15 PM 87.8 °F 93.8 °F 71.6 °F 58% 30.02 in 10.0 mi SSW 13.8 mph 21.9 mph N/A   Scattered Clouds
4:35 PM 89.6 °F 96.2 °F 71.6 °F 55% 30.01 in 10.0 mi South 17.3 mph 21.9 mph N/A   Partly Cloudy
4:55 PM 87.8 °F 93.8 °F 71.6 °F 58% 30.01 in 10.0 mi SSW 15.0 mph 19.6 mph N/A   Scattered Clouds
5:15 PM 87.8 °F 93.8 °F 71.6 °F 58% 30.01 in 10.0 mi SSW 16.1 mph - N/A   Clear
5:35 PM 87.8 °F 93.8 °F 71.6 °F 58% 30.01 in 10.0 mi South 12.7 mph 17.3 mph N/A   Partly Cloudy
5:55 PM 87.8 °F 92.6 °F 69.8 °F 55% 30.01 in 10.0 mi South 15.0 mph 21.9 mph N/A   Partly Cloudy
6:15 PM 87.8 °F 92.6 °F 69.8 °F 55% 30.00 in 10.0 mi SSW 12.7 mph - N/A   Clear
6:35 PM 86.0 °F 91.8 °F 71.6 °F 62% 30.01 in 10.0 mi South 9.2 mph 16.1 mph N/A   Scattered Clouds
6:55 PM 86.0 °F 91.8 °F 71.6 °F 62% 30.01 in 10.0 mi South 11.5 mph - N/A   Scattered Clouds
7:15 PM 84.2 °F 89.6 °F 71.6 °F 66% 30.01 in 10.0 mi South 10.4 mph - N/A   Partly Cloudy
7:35 PM 82.4 °F 87.2 °F 71.6 °F 70% 30.01 in 10.0 mi SSW 5.8 mph - N/A   Clear
7:55 PM 82.4 °F 87.2 °F 71.6 °F 70% 30.01 in 10.0 mi South 8.1 mph - N/A   Clear
8:15 PM 80.6 °F 83.9 °F 69.8 °F 70% 30.01 in 10.0 mi SSW 9.2 mph - N/A   Clear
8:35 PM 80.6 °F 83.9 °F 69.8 °F 70% 30.01 in 10.0 mi South 6.9 mph - N/A   Clear
8:55 PM 78.8 °F - 69.8 °F 74% 30.02 in 10.0 mi South 5.8 mph - N/A   Clear
9:15 PM 78.8 °F - 69.8 °F 74% 30.02 in 10.0 mi South 5.8 mph - N/A   Clear
9:35 PM 78.8 °F - 69.8 °F 74% 30.03 in 10.0 mi SSE 4.6 mph - N/A   Clear
9:55 PM 77.0 °F - 69.8 °F 78% 30.04 in 9.0 mi South 6.9 mph - N/A   Clear
10:15 PM 77.0 °F - 69.8 °F 78% 30.04 in 10.0 mi South 8.1 mph - N/A   Clear
10:35 PM 77.0 °F - 69.8 °F 78% 30.05 in 10.0 mi South 8.1 mph - N/A   Clear
10:55 PM 78.8 °F - 69.8 °F 74% 30.06 in 10.0 mi South 10.4 mph - N/A   Clear
11:15 PM 78.8 °F - 69.8 °F 74% 30.06 in 10.0 mi SSW 6.9 mph - N/A   Clear
11:35 PM 77.0 °F - 68.0 °F 74% 30.06 in 10.0 mi SSW 10.4 mph - N/A   Clear
11:55 PM 77.0 °F - 68.0 °F 74% 30.06 in 10.0 mi SSW 10.4 mph - N/A   Clear